Wind_Speed
31 30 30 31 31 31 30 30 30 31 31 31 30 30 29 28 28 28 28 28 28 27 26 27 26 23 22 21 20 20 19 18 17 16 16 15 15 16 15 14 13 14 13 13 12 11 11 10 10 9 9 8 8 8 8 7 7 6 6 6 6 6 6 6 7 9 11 13 15 16 17 18 18 19 19 21 23 24 25 26 27 29 30 31 31
31 30 30 31 31 30 30 30 30 31 31 31 31 31 30 29 28 28 29 28 28 27 27 27 27 26 24 23 22 21 20 19 19 18 17 16 16 16 16 16 15 15 15 15 15 14 14 13 12 12 11 10 10 9 9 9 9 9 8 9 9 9 9 9 10 10 11 13 15 17 18 20 21 22 23 24 26 27 29 29 30 30 30 29 29
30 29 30 30 30 30 30 30 30 31 31 31 31 31 30 30 29 29 29 28 28 28 27 27 28 27 26 25 24 22 22 21 20 20 19 17 16 16 17 18 17 17 17 17 17 17 17 16 15 15 14 13 12 12 11 11 11 11 11 11 11 12 13 13 13 13 14 14 15 17 19 21 22 23 25 26 26 27 27 27 28 28 28 27 26
29 29 29 29 29 30 30 30 31 31 31 32 32 31 30 30 29 29 29 28 27 27 28 28 28 27 27 26 25 24 23 21 21 22 21 19 17 16 17 18 19 19 20 20 20 20 19 18 18 18 17 16 15 14 14 14 14 13 14 14 14 15 16 16 16 17 17 17 18 19 21 22 23 23 24 25 24 25 25 24 25 25 24 24 24
28 27 28 29 30 29 30 30 31 31 31 31 31 31 30 29 29 28 28 28 27 27 27 29 29 27 27 27 26 25 24 23 23 23 22 20 18 17 18 19 20 21 22 22 22 22 21 20 20 21 20 19 18 17 16 16 16 16 16 16 17 18 18 19 19 20 20 20 20 20 20 21 20 19 19 21 21 21 21 22 23 23 22 21 22
29 27 27 29 30 29 29 30 30 30 30 30 30 31 30 29 28 28 28 29 29 28 27 28 28 27 26 26 26 25 25 24 24 23 22 21 19 18 19 19 19 21 22 23 24 23 22 22 21 22 22 22 20 19 19 19 19 19 19 19 20 20 20 21 21 21 21 21 19 18 16 16 16 15 15 18 19 19 19 20 21 23 23 23 23
30 28 28 29 29 29 29 29 29 28 28 29 30 30 30 30 29 28 28 29 29 29 29 27 27 26 25 26 26 26 26 25 24 23 22 21 19 18 19 19 19 20 22 24 24 24 23 22 23 23 23 23 22 21 21 21 21 21 21 21 21 21 21 21 20 20 20 18 17 15 14 14 15 15 15 17 19 20 21 21 22 23 24 24 24
30 29 29 29 29 28 28 28 29 28 28 29 30 30 31 31 30 29 29 29 29 30 29 27 26 25 25 25 26 26 26 25 24 23 22 21 20 18 18 19 19 19 21 23 24 25 23 22 22 23 24 23 23 22 21 21 21 21 21 21 20 20 20 19 18 18 17 17 16 15 15 14 15 16 17 19 21 22 23 23 22 22 23 24 24
31 30 29 29 29 28 28 29 29 29 28 29 29 30 30 31 32 31 30 29 29 28 28 27 26 25 25 25 26 26 25 25 24 23 21 21 20 19 18 18 19 19 20 22 24 25 24 22 21 22 23 24 23 22 22 22 21 20 19 19 18 18 17 16 17 17 17 17 17 16 16 15 16 17 18 20 23 24 25 25 25 24 25 27 28
32 31 29 29 29 29 29 29 29 30 29 29 29 30 30 30 32 32 31 29 29 28 28 28 26 25 25 25 25 25 25 24 23 22 21 20 20 19 19 19 19 19 20 21 23 24 23 22 21 21 22 23 23 21 22 21 19 18 17 17 16 16 16 16 16 17 17 16 15 15 15 16 18 19 21 22 24 25 26 27 28 29 31 33 34
33 32 30 30 30 29 30 29 29 29 29 29 30 30 30 30 31 32 32 30 30 30 30 29 27 25 25 25 25 25 24 23 22 21 20 20 20 20 20 20 19 20 20 20 21 23 23 22 21 21 22 22 21 20 20 19 17 16 16 16 16 16 16 16 16 16 16 15 13 14 16 17 19 21 22 24 25 25 27 29 31 32 34 37 37
35 34 32 32 31 30 30 30 29 29 29 29 29 30 30 30 30 31 31 31 31 31 31 30 29 28 27 26 26 25 24 23 22 21 20 20 20 21 21 21 21 21 20 20 20 22 23 22 21 22 22 21 20 19 19 18 16 16 16 17 17 17 17 17 17 17 16 15 13 13 16 19 20 21 23 25 25 26 28 30 32 33 36 38 39
37 36 35 34 32 30 30 30 29 28 28 27 28 30 31 31 30 30 30 30 30 31 32 31 30 30 29 29 27 26 25 25 23 21 20 21 21 22 23 23 23 22 22 21 20 21 23 23 22 22 22 21 20 20 19 18 17 17 17 18 18 18 19 20 19 17 16 15 14 14 16 19 19 20 23 25 26 27 29 30 32 34 37 39 40
39 38 37 35 34 32 31 30 30 28 27 27 27 29 31 32 30 30 30 30 30 31 32 32 31 31 30 30 29 27 27 26 24 22 21 21 22 23 24 24 24 24 24 22 21 21 23 23 23 23 22 22 21 20 19 18 18 19 19 20 20 20 20 21 21 20 18 16 16 16 17 18 20 21 23 25 26 28 30 31 33 35 37 39 41
41 40 39 38 36 35 33 31 30 29 28 28 28 28 30 31 31 31 31 31 31 31 32 32 31 30 30 30 30 28 28 27 25 23 22 22 23 25 26 26 26 26 25 24 22 21 22 23 24 23 23 22 22 21 20 20 20 21 21 21 21 21 22 21 21 21 20 19 19 19 19 20 21 22 24 26 27 29 31 33 34 36 39 40 40
42 41 41 40 38 36 34 32 31 30 30 30 29 28 29 31 31 31 31 31 31 31 31 32 31 31 30 30 30 29 28 28 27 24 22 22 24 26 28 28 27 27 26 25 23 22 22 23 24 24 24 23 22 21 21 21 23 23 23 23 23 23 23 22 21 21 21 21 21 21 22 22 23 25 26 28 29 31 33 34 35 39 41 41 41
42 42 42 42 41 38 37 34 32 31 31 31 30 29 29 30 31 32 32 32 32 32 31 31 32 31 31 31 31 30 29 29 28 24 22 23 25 27 28 28 28 27 27 26 25 24 24 24 25 26 25 24 23 22 22 23 24 26 26 26 26 25 24 23 22 22 22 23 22 22 23 24 25 27 29 30 32 34 34 35 37 40 41 42 43
41 41 42 43 43 41 39 37 34 32 32 33 32 31 30 29 30 31 32 32 31 31 31 31 32 32 31 31 30 30 29 28 27 25 23 24 25 27 28 28 28 28 27 27 27 26 25 25 26 27 26 25 24 24 24 25 27 28 28 29 29 28 26 25 25 26 26 25 24 24 25 26 27 29 31 32 33 35 37 37 38 40 41 42 44
39 40 42 44 45 43 41 39 36 33 32 32 33 33 32 30 30 30 30 31 31 31 31 31 32 32 32 31 30 30 29 28 27 25 24 25 25 27 28 29 29 28 26 27 27 27 27 27 27 29 28 27 27 26 26 28 29 30 30 30 30 29 28 28 28 29 29 29 28 28 29 30 31 31 33 33 34 37 39 41 42 43 43 43 43
35 38 41 44 45 44 43 40 37 35 33 32 33 34 34 32 31 30 30 31 32 31 31 31 31 31 32 32 31 31 30 29 28 26 26 26 26 27 28 29 29 28 26 26 26 27 27 28 28 29 29 30 30 29 29 30 31 32 32 32 31 30 30 30 31 31 32 32 32 32 31 32 34 35 35 36 37 38 41 43 44 45 44 43 42
31 34 38 42 45 45 44 42 39 36 34 32 33 34 35 34 32 30 30 31 32 33 32 32 32 31 31 32 32 32 30 30 30 28 27 27 27 27 29 29 29 28 27 26 26 26 27 27 28 29 29 31 32 32 32 32 33 33 33 33 32 31 31 32 32 33 34 34 34 34 33 34 36 38 39 40 41 42 44 45 44 42 40 40 40
32 33 36 40 44 45 44 42 39 36 35 34 34 34 35 35 33 31 31 31 33 34 34 33 32 31 30 31 32 32 31 31 32 30 28 28 28 29 30 30 30 29 29 28 27 27 27 27 28 29 29 30 31 32 34 34 34 34 33 33 33 33 33 33 33 33 34 35 36 36 36 37 38 40 41 42 43 45 46 45 41 38 36 38 40
33 33 35 40 44 45 43 40 37 36 36 36 35 34 34 35 33 32 32 33 34 34 35 34 33 32 31 31 32 32 32 31 32 31 30 29 29 30 31 32 32 31 30 30 29 28 29 29 30 30 30 30 30 31 33 35 35 34 34 34 34 34 34 34 33 33 35 36 37 37 38 38 39 41 42 42 44 46 45 40 35 33 34 37 40
33 33 36 41 43 43 40 37 35 35 36 35 34 33 33 33 33 33 33 34 35 35 35 34 34 33 33 32 31 32 32 32 31 32 31 30 31 31 32 33 34 33 32 32 31 31 31 31 31 31 31 30 30 30 32 34 34 34 34 34 35 34 34 35 35 35 36 38 38 39 39 39 40 41 41 42 44 45 42 36 32 32 34 37 37
34 35 38 41 42 40 36 33 31 30 29 30 31 32 32 32 33 34 34 35 35 36 35 34 34 34 34 33 31 31 31 31 30 30 30 29 30 30 32 33 34 34 33 32 32 32 33 32 32 31 31 30 29 29 31 33 33 34 34 34 34 34 35 36 36 37 38 38 38 38 39 40 40 41 41 42 42 40 37 35 34 34 36 36 33
34 37 40 41 40 37 33 29 27 26 25 27 28 29 30 31 31 31 31 32 33 32 31 31 30 30 29 29 28 28 28 27 26 26 26 27 28 29 31 32 33 34 33 31 31 32 32 32 32 31 30 30 28 29 31 32 33 33 33 33 34 35 36 37 37 38 38 38 38 39 40 40 40 40 39 39 39 37 36 37 37 38 37 34 29
36 39 42 42 40 36 33 30 28 27 27 28 29 29 30 31 31 30 29 29 30 29 28 27 27 26 27 27 27 28 28 26 25 25 25 26 28 29 30 31 31 32 31 31 30 31 31 31 31 31 31 30 29 30 31 32 32 32 33 33 35 36 37 37 37 38 38 39 39 39 39 39 39 38 37 37 36 36 37 38 38 38 37 33 29
39 42 44 43 41 37 33 31 30 30 31 31 32 32 32 32 31 31 30 30 31 30 30 30 29 29 30 31 31 31 31 30 29 28 27 27 28 30 30 31 31 31 32 31 31 31 32 32 32 32 32 31 31 31 32 33 33 33 34 34 36 37 38 38 37 38 39 39 39 39 38 37 35 34 34 35 35 36 36 36 36 36 35 33 31
43 46 46 46 43 39 36 35 34 34 35 35 34 32 32 32 33 33 33 33 33 33 33 33 33 33 33 33 31 31 31 31 30 30 30 30 30 31 31 32 33 33 33 33 33 34 34 34 33 33 33 33 32 33 34 35 34 33 34 35 35 37 38 38 38 40 40 39 37 36 33 30 29 29 31 33 34 34 33 33 35 36 36 34 33
46 48 48 47 46 43 40 39 38 38 37 35 33 32 32 33 34 34 34 33 33 35 35 34 32 31 31 29 28 27 27 28 28 29 30 31 31 31 31 32 33 32 30 30 31 32 31 30 30 30 31 31 31 31 33 33 32 31 32 32 32 35 36 35 36 38 37 33 31 29 25 24 26 29 31 33 34 34 34 35 36 36 35 33 32
49 49 49 48 47 46 45 43 41 40 38 33 31 32 32 32 32 32 32 31 30 31 32 30 28 28 27 25 25 25 25 25 26 27 28 28 28 29 28 28 28 28 27 28 28 27 27 26 26 27 28 29 29 30 31 31 30 28 29 30 31 33 34 33 34 34 31 28 27 25 22 23 27 30 31 33 33 34 35 35 34 33 32 31 30
50 50 50 50 48 47 46 45 41 39 37 32 30 30 30 30 30 29 29 29 28 27 27 27 26 26 26 25 25 25 25 25 25 25 26 26 26 26 26 26 25 26 27 28 28 27 28 28 28 28 29 30 30 30 30 31 31 29 30 31 32 32 33 33 32 31 29 29 28 25 23 24 27 28 29 31 31 31 32 32 31 30 29 29 30
53 52 51 50 48 46 45 43 39 36 34 33 31 30 29 29 29 28 28 27 27 26 26 26 26 27 27 26 27 27 27 27 27 27 26 25 25 26 27 27 27 27 28 29 29 29 30 30 30 30 30 30 30 30 30 31 32 31 31 32 33 33 33 32 30 28 29 29 27 25 23 23 24 25 26 27 28 29 30 29 29 29 29 29 31
53 54 53 50 48 45 42 39 36 33 33 32 32 31 30 30 29 28 27 26 26 25 26 26 27 27 27 27 27 27 27 28 27 27 26 25 25 27 28 29 29 29 30 31 31 31 32 31 29 29 30 32 31 30 30 32 34 33 33 34 34 34 32 29 28 28 29 27 26 26 24 24 24 24 25 26 27 27 27 27 28 28 29 30 32
52 53 52 49 44 41 39 37 36 34 32 32 31 30 30 30 29 27 26 27 27 26 26 26 27 27 27 26 26 26 26 27 26 25 25 25 26 28 30 31 31 32 32 32 32 32 32 30 29 29 31 32 31 30 31 33 33 33 34 34 34 33 31 29 29 29 28 27 27 26 24 25 25 25 25 25 25 25 26 28 29 29 30 32 33
54 52 48 44 42 40 39 39 38 35 34 34 33 31 31 31 30 29 30 30 28 27 27 27 29 29 29 28 27 26 26 26 26 26 26 27 28 29 30 31 31 31 31 32 32 32 31 30 30 30 31 31 30 30 31 33 33 33 34 33 33 32 31 29 27 26 25 26 25 23 23 25 26 25 25 26 26 26 28 29 30 31 31 32 33
54 53 49 46 45 44 43 43 41 38 36 35 35 33 33 33 33 33 33 30 28 28 30 31 32 32 31 29 27 27 27 27 27 27 28 29 30 30 30 30 30 30 30 31 32 32 32 31 30 29 29 29 30 30 30 32 34 33 32 32 32 31 29 27 24 23 25 27 26 24 25 26 26 26 27 27 27 28 29 30 31 32 32 32 33
53 53 51 50 48 46 45 45 44 42 39 38 36 35 36 36 36 34 32 30 30 31 33 34 34 35 35 33 30 29 30 30 30 30 32 32 32 31 30 29 28 29 30 31 32 32 31 31 30 29 29 30 31 30 29 31 34 33 31 31 31 29 27 27 27 27 29 30 28 26 26 27 27 27 28 28 29 30 30 30 31 32 33 33 34
50 51 51 50 48 46 45 44 45 44 43 41 39 38 37 37 36 34 32 32 34 35 35 35 36 36 37 37 36 35 35 34 34 34 34 34 33 32 30 29 29 31 33 34 33 32 32 31 30 30 29 30 30 30 30 32 33 32 29 28 29 28 27 27 27 27 28 28 28 28 27 27 28 29 28 29 30 31 31 31 32 32 33 34 35
48 49 49 48 47 47 47 47 45 44 42 40 38 38 38 38 36 36 35 36 37 37 37 38 38 38 38 38 38 38 38 37 36 35 35 34 34 33 32 32 34 36 37 37 35 33 31 32 32 30 29 29 30 31 32 31 31 29 27 26 26 26 25 25 25 25 25 26 28 29 28 28 29 29 28 29 31 31 31 31 32 33 34 35 35
46 46 47 46 45 45 47 47 45 42 40 39 38 39 39 39 39 39 39 39 40 40 40 40 40 40 40 40 40 40 40 38 37 36 36 36 35 34 33 33 35 37 38 37 36 34 33 33 32 30 29 29 29 29 29 28 28 27 27 26 25 25 25 25 25 25 25 26 28 29 29 29 29 29 29 30 31 31 31 32 32 33 34 34 34
44 45 46 46 44 42 43 45 45 42 38 36 37 39 40 41 42 42 42 42 41 41 40 40 39 39 40 40 40 39 38 37 37 37 37 37 36 35 33 33 33 33 33 33 32 32 33 33 31 29 28 27 27 27 26 27 27 27 26 26 25 25 26 27 26 25 25 27 28 29 29 29 30 30 30 31 31 30 31 32 32 33 33 33 32
38 40 42 44 43 40 37 38 41 42 39 36 37 40 42 43 43 43 43 42 41 39 39 38 37 37 37 37 37 37 36 36 36 37 37 37 36 35 34 33 31 30 30 30 30 29 29 30 30 28 27 26 26 27 27 28 28 28 27 27 27 26 26 27 26 26 26 27 29 29 29 29 30 30 30 30 30 30 31 32 32 32 32 32 31
32 35 37 39 41 41 40 37 36 37 38 38 37 38 40 43 43 43 41 40 38 37 36 36 35 35 36 36 36 36 36 36 36 37 36 36 35 34 33 32 31 30 30 30 29 29 29 29 29 28 28 27 27 27 27 27 28 28 27 27 27 26 26 27 27 27 28 28 29 29 29 29 29 29 29 30 31 31 31 32 32 32 32 31 29
22 30 34 35 35 38 42 42 38 34 34 35 33 32 34 38 41 39 36 34 33 33 32 33 33 34 35 36 35 35 35 35 35 35 35 33 32 31 30 29 29 29 29 29 29 29 30 29 29 29 28 28 26 26 26 26 27 27 26 26 26 26 26 28 28 29 30 30 29 28 28 29 29 29 30 30 31 31 32 32 32 32 31 31 30
13 20 29 33 34 35 38 40 36 33 33 34 32 28 28 31 33 32 31 32 33 33 32 33 35 35 35 34 34 34 35 35 35 34 32 31 30 30 30 30 29 29 29 29 30 29 29 28 28 28 27 26 25 26 27 27 27 27 27 27 27 28 28 29 30 30 30 29 28 28 28 28 29 30 30 30 31 31 32 32 31 31 31 31 32
13 15 23 30 33 34 35 35 33 32 32 32 30 29 28 26 25 24 26 29 31 32 32 33 35 35 34 34 34 33 33 33 32 31 31 30 29 29 29 29 29 29 28 28 28 28 27 27 27 27 26 25 26 27 28 28 28 28 28 28 29 29 30 30 29 29 28 28 28 29 29 29 29 30 30 30 30 30 30 30 30 31 31 32 32
10 12 18 25 28 28 28 29 31 32 30 27 25 26 27 24 21 20 22 25 30 32 32 32 34 36 36 35 33 31 30 29 29 28 28 27 27 27 26 27 28 28 28 27 27 28 28 28 28 27 26 26 26 27 27 27 28 28 29 29 30 29 29 28 28 28 29 29 29 30 30 30 30 30 29 29 29 29 30 30 30 30 31 31 31
7 8 12 18 22 22 21 21 25 28 28 25 23 22 20 18 17 17 19 22 27 31 31 31 33 34 34 32 30 28 28 27 26 26 26 25 25 26 26 27 28 28 28 27 28 29 29 29 28 27 27 27 27 27 27 28 28 28 28 29 28 28 28 28 29 29 30 30 30 30 30 30 30 30 29 29 29 30 30 30 30 30 31 31 32
5 5 6 9 13 16 16 16 16 17 19 19 19 17 15 13 13 15 17 19 22 25 26 26 26 26 27 27 27 27 26 25 25 26 26 26 26 27 27 28 29 29 29 29 29 29 29 28 28 28 27 27 27 27 27 27 27 27 27 27 27 28 28 29 29 29 29 29 29 29 30 30 30 29 29 29 29 30 30 30 30 31 31 32 32
8 7 7 7 8 9 11 12 12 12 12 13 13 13 12 11 13 16 19 20 20 21 22 24 24 23 24 24 24 24 24 24 26 28 28 27 26 26 27 28 29 30 30 30 30 29 29 28 28 27 27 27 27 27 27 26 26 27 27 27 28 28 28 28 29 29 29 29 30 30 30 30 30 30 30 30 30 30 31 31 32 33 33 33 33
Wind_Direction
221 222 222 224 225 225 224 224 225 225 224 223 223 223 226 227 228 230 230 229 229 227 224 225 226 224 224 226 227 227 227 230 234 237 239 238 234 234 234 233 234 234 234 234 232 231 231 230 230 230 226 223 225 224 224 230 237 240 247 258 267 272 276 280 286 293 301 307 312 316 319 320 320 321 321 321 320 320 322 323 323 324 327 328 329
220 220 220 222 224 225 225 224 224 225 225 224 224 224 226 227 228 229 231 231 230 229 226 226 227 226 225 226 228 229 230 231 236 240 242 244 243 241 240 239 237 238 238 238 238 237 237 237 238 240 239 238 239 239 240 242 246 252 258 265 272 278 281 281 282 283 285 290 298 304 306 308 310 312 313 313 314 315 317 320 322 323 324 325 325
220 219 219 221 222 223 224 224 224 225 225 224 224 224 225 227 228 229 231 232 231 230 228 227 228 227 227 228 228 230 232 233 237 243 245 247 248 246 246 244 241 239 240 241 241 241 241 242 244 245 244 243 244 247 250 251 253 258 263 268 274 279 281 282 284 286 287 287 290 293 295 298 301 304 305 307 309 310 312 317 319 320 322 323 323
221 219 219 220 221 222 223 223 224 224 225 224 223 223 224 227 229 229 231 232 231 230 229 228 228 228 228 230 230 231 232 234 238 244 247 248 250 250 249 248 244 241 240 241 242 242 242 243 246 249 248 247 247 249 253 256 258 261 266 270 274 278 281 284 285 286 288 289 290 292 293 296 299 303 305 308 310 312 315 318 317 318 320 321 321
222 220 218 219 220 221 221 222 223 224 225 225 225 224 224 225 227 229 230 231 231 230 230 229 229 228 228 231 232 233 234 236 238 244 248 249 250 249 249 248 245 242 241 241 242 242 243 243 245 248 250 250 250 252 254 257 260 263 267 270 273 276 280 283 286 287 288 290 291 292 295 298 302 306 308 309 311 313 315 316 316 318 322 322 320
224 221 217 218 220 220 220 222 223 224 224 225 226 225 224 224 226 227 229 231 232 232 232 231 231 229 228 231 234 234 235 237 238 242 246 248 248 248 248 248 246 243 242 242 243 243 243 243 244 247 250 251 252 253 255 258 260 264 268 271 274 277 279 282 285 288 290 291 294 297 301 305 307 311 313 313 314 316 316 315 315 318 321 321 319
227 225 220 218 220 220 220 221 223 223 224 225 226 226 225 224 224 226 227 230 232 232 232 233 233 230 228 230 234 235 235 237 238 239 244 247 248 247 249 250 249 246 244 243 244 245 244 244 245 247 250 251 252 253 255 257 260 263 267 271 274 277 280 283 285 288 290 293 299 304 307 310 314 320 325 323 321 321 318 315 315 317 318 318 318
231 229 224 221 221 221 220 221 222 223 223 224 226 227 226 225 225 224 225 227 230 232 231 232 232 231 229 229 233 235 235 237 238 238 241 246 248 248 248 252 253 251 248 246 245 246 246 246 246 246 248 250 251 252 253 255 258 262 266 269 273 276 279 283 286 288 292 297 303 310 313 318 323 327 329 327 324 321 319 317 317 317 317 317 320
233 233 229 226 224 222 221 221 221 222 222 223 226 228 228 227 227 226 224 224 227 230 230 230 229 229 229 229 232 235 236 236 237 238 240 244 247 249 248 250 254 254 252 248 246 246 246 246 247 247 246 247 248 248 250 253 256 259 263 266 269 273 276 281 285 290 296 302 310 316 319 324 328 329 330 330 326 323 320 318 317 319 321 323 327
234 235 233 230 228 225 223 222 221 222 222 222 224 228 229 229 229 230 228 225 226 229 230 230 228 228 229 229 231 235 236 236 236 237 239 242 245 248 248 248 251 254 253 249 246 246 246 245 245 246 245 244 244 244 245 249 252 253 257 261 265 270 275 280 286 293 299 305 311 315 318 325 329 330 332 332 328 323 319 317 318 322 325 327 330
232 235 235 232 231 229 226 224 222 222 223 223 223 226 229 230 231 232 231 227 227 230 231 231 230 230 231 231 232 235 237 237 236 236 239 242 243 245 248 249 249 252 254 250 245 244 245 244 243 243 243 242 241 238 238 241 244 247 253 259 265 270 276 282 290 297 301 304 309 314 319 325 329 331 332 331 328 322 316 316 318 320 323 327 328
229 232 233 232 232 232 230 227 224 223 224 224 223 224 227 229 230 232 232 230 228 230 232 232 232 232 233 234 234 234 236 238 236 235 238 242 244 245 246 248 249 251 252 251 245 242 242 241 240 240 239 237 234 232 232 235 240 245 251 259 267 275 282 288 294 297 298 300 305 314 319 323 327 331 331 328 325 320 315 315 316 318 322 325 325
226 227 229 231 232 233 232 231 227 224 224 225 224 223 225 227 228 230 231 231 229 230 232 233 232 233 234 235 235 235 237 237 235 234 237 241 244 246 246 247 249 251 251 250 246 241 239 239 238 236 234 231 229 229 231 234 239 246 254 262 270 278 284 290 292 292 292 294 300 310 315 318 322 326 327 325 322 318 314 312 312 315 319 321 322
224 225 227 229 230 231 232 232 230 226 224 225 225 223 224 226 227 227 229 230 229 229 231 233 233 233 234 236 236 236 238 238 235 233 235 239 243 245 246 246 247 249 250 250 246 242 239 237 235 231 228 227 228 231 234 238 242 248 255 263 270 277 283 287 289 290 290 292 297 304 308 310 314 318 321 321 320 317 313 310 310 313 316 318 319
224 224 224 226 228 229 230 231 229 226 223 224 226 225 224 225 226 226 227 228 228 228 230 233 234 233 234 236 236 235 237 238 236 231 232 237 241 243 245 245 245 246 248 249 248 244 240 237 232 227 224 226 229 231 235 241 247 252 256 261 268 273 278 281 284 286 287 288 293 297 301 305 307 311 315 316 316 316 313 311 311 312 314 316 318
224 223 223 225 228 228 229 229 228 225 223 223 226 227 226 225 225 225 226 227 228 228 229 231 233 232 233 236 237 235 235 237 236 232 229 233 239 241 243 244 243 244 245 247 247 245 241 236 230 226 224 227 230 232 235 242 251 257 261 264 268 272 276 278 277 276 277 281 285 289 295 300 303 307 311 312 313 315 313 312 311 309 310 313 316
225 224 223 225 227 227 227 228 228 225 223 222 224 227 228 227 226 225 225 227 228 228 228 229 232 232 232 234 236 237 236 236 236 233 229 229 234 239 242 243 243 242 243 244 245 245 242 236 231 229 228 229 232 235 238 245 253 258 263 267 270 273 277 279 279 277 276 276 279 283 289 294 299 303 306 307 310 311 311 311 310 307 306 309 312
226 225 223 224 226 227 226 227 227 226 224 222 223 226 228 229 229 227 226 226 228 229 229 230 231 233 233 233 235 237 238 237 235 232 228 226 230 236 240 242 242 241 241 242 243 243 242 238 234 232 232 233 235 237 241 246 253 258 262 267 271 274 278 281 283 283 280 279 281 284 288 291 294 298 300 303 307 308 309 310 309 306 305 306 309
228 227 224 223 224 225 225 227 228 227 225 224 223 225 227 229 231 230 228 227 228 229 229 230 231 232 233 233 234 235 237 237 234 229 227 226 227 232 237 240 242 242 241 242 243 243 243 240 237 236 235 236 237 239 242 245 250 255 260 264 269 273 278 281 282 282 282 283 285 286 288 292 294 295 297 300 303 305 306 307 307 305 303 304 307
231 230 226 222 222 223 224 227 228 229 227 226 225 225 226 228 230 232 230 228 227 228 229 230 230 231 233 234 234 233 233 236 235 229 226 226 227 231 235 239 242 243 243 243 244 244 243 243 241 239 238 239 240 241 243 245 248 252 256 261 266 270 275 279 280 281 282 283 284 285 288 291 292 294 296 298 299 301 302 303 304 303 302 304 306
234 233 228 223 221 222 224 227 229 230 229 228 227 226 226 227 229 232 232 230 229 228 229 230 230 230 231 233 235 234 231 234 236 232 227 227 228 231 235 238 241 243 244 244 245 246 245 245 244 243 241 241 242 243 244 245 247 250 254 259 264 268 272 275 277 279 281 282 284 286 287 288 289 291 294 296 298 300 301 302 302 301 302 304 304
234 233 228 223 220 221 223 226 228 231 231 230 229 227 226 226 227 230 232 232 231 229 229 230 231 230 230 232 235 235 232 232 234 234 230 228 229 232 236 239 241 242 244 244 245 246 247 247 246 245 243 242 242 243 245 247 248 250 253 258 263 266 269 270 273 276 280 282 284 285 285 286 287 288 291 294 297 299 302 302 302 302 303 302 302
233 232 226 222 219 219 222 225 228 231 232 231 228 226 225 224 226 230 232 232 231 230 228 229 230 231 231 232 234 236 235 233 233 234 234 232 231 232 236 240 242 243 244 246 246 247 249 249 249 247 245 243 242 243 246 248 250 252 255 258 261 264 267 269 271 275 278 280 282 282 283 284 285 286 289 292 295 298 300 300 299 300 301 301 300
229 228 223 219 217 216 219 223 226 229 230 228 225 223 222 223 226 229 231 230 230 230 228 228 229 231 232 233 234 236 237 236 234 234 234 234 234 234 236 240 244 245 245 247 248 249 250 250 250 250 249 247 245 245 247 250 253 255 257 259 262 264 267 269 271 274 276 277 279 280 281 282 283 286 289 292 295 296 296 294 294 296 298 299 300
224 223 219 214 212 214 217 218 218 219 219 218 218 219 219 222 225 227 228 228 228 229 229 229 229 231 233 234 235 237 238 238 237 235 233 234 236 236 237 240 244 247 248 249 250 252 253 253 254 255 256 255 253 251 252 252 254 256 259 261 264 266 269 271 273 274 275 276 277 279 280 281 284 287 290 292 293 292 291 292 296 298 298 298 297
218 216 211 208 209 211 211 208 206 206 206 207 209 212 214 216 217 219 219 221 224 226 227 228 229 230 232 233 234 236 237 238 238 237 234 234 236 237 238 240 243 247 249 250 250 252 254 255 256 257 259 259 258 256 255 256 258 260 262 265 267 269 270 271 272 273 275 276 277 278 280 283 286 288 289 289 288 286 287 291 295 296 296 295 293
211 208 204 204 207 208 206 205 207 209 211 210 210 211 213 213 215 217 216 218 221 224 226 228 230 231 233 234 235 238 240 240 241 241 237 235 235 237 238 240 243 247 250 251 251 253 255 256 257 258 260 261 261 259 259 260 262 263 265 266 268 268 268 270 272 274 275 277 278 281 283 285 287 287 286 285 285 285 286 289 291 293 295 294 292
205 203 201 203 205 206 205 208 212 216 219 220 219 220 222 223 226 228 228 229 231 234 236 238 240 242 243 243 243 244 245 245 244 243 241 239 238 239 240 242 244 246 249 251 253 255 256 258 259 261 262 262 263 263 263 263 263 264 265 265 266 268 270 272 275 276 276 278 280 282 284 285 286 285 285 285 286 287 287 287 290 294 294 294 295
201 200 201 203 205 206 208 212 216 220 223 225 227 230 233 235 238 240 240 240 241 243 246 247 248 249 250 249 247 247 248 248 247 246 245 243 243 243 244 245 246 247 249 253 255 257 258 259 261 263 264 265 265 264 264 264 264 265 265 267 269 271 273 275 276 276 277 279 281 282 282 282 282 282 284 285 287 289 290 290 292 293 292 293 296
199 200 202 204 206 208 212 215 218 222 226 229 233 237 239 240 241 243 243 244 244 245 246 247 247 246 247 246 246 246 247 248 247 246 246 246 246 245 246 248 251 252 254 256 257 258 260 261 262 263 264 264 264 264 264 264 265 266 267 269 270 271 272 273 275 276 277 276 275 275 274 274 276 280 284 286 288 290 291 291 290 289 288 290 293
198 200 203 206 208 211 215 217 220 224 228 231 234 236 238 238 239 240 240 239 239 239 241 241 241 241 241 242 243 244 245 246 245 246 247 247 248 248 248 251 255 259 260 261 261 262 261 259 259 259 260 261 262 264 264 266 267 269 270 269 268 268 269 270 271 271 270 266 262 261 262 267 275 280 281 282 285 288 289 287 286 285 286 289 293
199 202 205 207 210 213 216 219 222 226 229 230 229 229 230 231 231 232 233 234 234 234 235 236 237 238 239 239 240 241 242 243 244 245 247 248 251 252 252 252 255 259 260 259 258 258 258 258 258 259 259 260 262 265 268 269 270 270 269 268 267 266 266 265 264 264 261 258 255 255 256 262 269 273 274 276 281 284 283 282 282 284 287 290 293
200 204 206 209 212 214 216 220 221 222 224 223 221 220 222 223 225 228 231 233 234 234 234 235 237 237 237 238 239 240 242 243 244 245 247 249 251 254 254 253 253 254 255 254 253 255 257 258 259 260 262 265 267 269 271 271 270 270 269 269 269 267 265 264 263 262 261 262 265 268 270 271 273 274 275 276 277 277 276 277 281 284 287 288 290
200 204 207 210 212 214 216 216 214 214 216 216 214 217 220 223 226 228 230 231 232 232 232 233 235 237 238 238 239 240 241 243 244 245 247 249 250 252 253 253 252 251 250 250 251 253 255 257 259 264 268 270 271 271 270 269 269 270 269 268 268 268 266 264 261 259 260 268 277 281 282 281 281 280 277 275 274 275 277 278 281 284 285 287 289
200 205 208 210 211 211 212 210 207 206 209 210 211 214 219 221 222 222 224 227 228 228 228 229 232 235 237 237 238 239 240 242 244 245 247 249 249 249 250 249 248 247 247 248 250 252 254 258 261 264 266 267 267 267 266 267 268 267 265 265 268 267 263 259 259 260 264 270 276 278 279 279 279 277 275 274 276 278 279 280 282 284 285 287 290
200 202 204 205 206 206 205 205 205 205 206 208 210 212 213 214 215 217 219 222 222 221 223 226 229 231 232 233 234 234 236 239 242 243 245 246 246 246 246 246 246 247 248 250 252 253 255 257 258 259 261 263 264 263 262 263 262 260 260 263 266 265 262 259 258 261 266 271 273 274 274 275 276 276 276 277 279 279 280 282 284 285 287 291 295
201 201 201 201 202 202 202 203 206 208 209 212 215 215 211 210 213 217 220 222 222 222 223 224 226 228 229 230 231 233 234 236 238 240 242 243 244 246 247 248 249 250 251 252 253 254 254 254 255 256 258 259 260 259 260 261 260 258 259 262 264 265 266 265 264 268 274 276 276 273 272 274 275 276 277 279 280 281 282 284 286 289 293 297 299
200 201 200 200 200 201 202 203 206 210 214 217 220 219 216 215 219 223 225 227 228 227 226 226 226 227 228 228 230 232 233 234 234 235 237 240 243 247 250 251 252 252 253 254 254 254 253 251 249 250 251 253 255 257 259 261 260 259 259 260 262 264 265 266 268 273 275 275 274 272 272 273 275 276 278 281 282 284 286 289 292 295 298 301 302
200 200 200 200 201 202 202 204 208 212 216 219 220 220 221 223 226 227 227 228 229 229 230 231 231 231 230 230 231 232 233 233 234 235 238 241 244 246 248 251 254 256 257 258 257 255 252 248 245 245 249 254 256 255 253 255 257 258 256 255 256 258 260 262 264 267 268 269 271 273 273 274 276 279 282 284 285 289 292 294 295 298 300 301 302
199 200 201 202 204 205 206 208 211 213 215 217 219 222 224 226 226 226 226 228 230 232 234 235 236 236 235 235 234 234 235 235 236 239 242 245 248 249 249 250 252 254 255 256 256 253 248 243 242 244 247 252 256 255 251 251 255 257 256 254 256 260 263 265 265 265 265 267 271 274 275 277 279 283 285 287 288 292 295 295 296 298 299 300 301
202 201 201 202 205 208 210 212 214 215 216 219 223 226 228 227 227 227 228 229 230 232 234 236 238 238 238 236 235 236 237 237 238 241 244 247 251 254 254 252 251 251 251 251 252 249 243 241 243 246 247 250 253 254 252 253 254 255 256 259 261 263 264 265 266 267 267 269 272 275 278 281 283 285 287 288 290 292 294 294 295 296 297 299 301
208 207 205 205 206 208 211 214 216 217 218 222 227 229 230 229 229 230 230 230 231 233 234 236 238 239 239 238 237 237 238 240 241 243 246 249 254 257 257 253 251 249 249 249 248 245 241 242 247 250 249 248 249 251 252 254 256 258 259 261 262 262 263 265 267 269 271 273 275 277 280 282 284 286 287 288 290 292 292 292 294 295 297 299 299
211 211 211 211 212 211 209 212 216 216 217 221 227 229 230 231 231 232 232 232 233 234 236 237 239 240 238 237 237 238 238 240 242 244 246 250 254 256 255 250 246 244 243 242 242 241 242 245 249 249 246 244 245 248 251 254 256 258 259 260 260 261 263 266 268 270 272 274 276 279 281 283 284 286 287 288 290 291 291 292 293 294 294 295 294
213 212 211 214 218 218 215 215 219 221 221 224 229 232 233 232 232 232 233 234 234 235 236 235 235 235 235 234 235 236 238 239 241 243 246 250 252 253 251 246 243 241 243 244 244 243 244 246 246 246 246 246 246 248 250 253 254 255 255 257 259 261 264 268 271 273 274 275 277 279 280 282 284 286 287 288 289 290 290 290 291 290 290 290 290
211 211 210 212 215 216 214 216 222 229 230 232 235 237 239 240 239 237 236 236 233 231 231 231 230 230 231 232 233 234 236 238 240 243 246 247 247 246 243 241 240 241 244 247 246 242 241 241 243 244 246 248 250 251 253 255 255 255 256 258 260 263 266 269 271 272 273 274 275 276 278 280 283 285 285 287 288 288 287 286 285 285 287 287 288
203 204 207 210 212 213 213 217 226 234 236 237 238 239 242 248 249 247 247 244 234 223 220 223 227 229 230 232 232 233 236 238 240 241 242 242 240 238 236 237 240 242 243 244 243 241 240 242 244 244 244 246 250 252 254 255 256 257 259 261 263 265 267 269 270 271 272 274 275 277 278 280 282 284 285 286 286 285 285 284 283 283 283 284 286
206 203 207 210 213 216 218 221 226 229 231 234 236 235 238 244 248 248 252 252 241 226 218 219 225 229 232 233 234 234 235 236 236 237 237 237 237 236 236 237 239 240 239 238 239 241 243 245 247 247 246 247 249 250 251 253 255 257 259 262 263 265 266 267 268 270 272 273 275 277 279 281 282 284 285 285 285 284 284 283 282 281 281 282 285
192 200 205 207 210 212 214 216 218 221 224 228 228 229 233 241 245 245 247 245 238 232 230 231 232 233 232 230 228 229 231 230 229 229 231 232 232 233 234 234 234 233 232 234 239 244 246 247 247 247 247 247 247 248 250 253 255 257 259 261 262 263 265 266 269 271 273 275 276 278 280 281 282 283 284 285 285 284 284 283 283 283 284 284 285
170 180 189 195 199 202 204 209 214 220 226 228 226 224 230 237 241 243 242 237 232 234 239 242 241 238 232 225 221 221 224 225 226 227 229 230 231 230 230 230 230 230 232 236 240 244 245 245 245 246 246 247 249 251 253 254 256 258 259 261 262 264 267 270 272 274 275 277 278 279 280 281 282 283 284 285 285 285 286 286 286 285 285 285 285
202 200 196 194 193 194 197 204 211 219 227 232 230 229 231 233 234 235 235 231 227 228 233 236 237 233 228 223 219 217 219 226 234 238 237 233 230 228 227 228 231 233 236 237 239 240 241 242 243 245 248 250 252 254 255 257 258 260 262 264 266 269 271 273 274 275 276 277 278 279 279 280 281 282 283 284 284 285 286 286 285 284 283 284 284
234 236 238 234 222 213 213 215 215 217 226 234 237 240 241 239 236 234 233 230 228 228 230 233 232 228 223 222 221 218 219 227 236 237 233 229 227 228 231 233 235 236 236 236 236 237 238 241 243 246 249 251 253 255 257 259 261 263 265 268 270 272 274 275 276 277 278 279 279 279 280 280 281 282 283 284 285 285 285 285 284 284 284 284 283
Height
3181 3184 3186 3189 3191 3193 3196 3198 3201 3203 3205 3207 3209 3211 3213 3215 3217 3219 3220 3222 3223 3225 3227 3229 3230 3232 3233 3234 3235 3236 3237 3238 3239 3240 3241 3242 3243 3245 3246 3247 3248 3249 3249 3250 3251 3252 3253 3253 3254 3255 3255 3255 3256 3256 3256 3257 3257 3257 3257 3257 3257 3258 3258 3258 3258 3258 3257 3257 3256 3256 3255 3255 3254 3254 3253 3253 3252 3250 3250 3249 3248 3247 3246 3245 3243
3179 3181 3184 3186 3189 3191 3194 3196 3199 3201 3203 3205 3207 3209 3211 3213 3215 3216 3218 3219 3221 3223 3225 3227 3228 3230 3231 3232 3233 3235 3236 3237 3238 3239 3240 3241 3242 3243 3244 3246 3247 3247 3248 3249 3250 3251 3251 3252 3253 3254 3254 3255 3255 3255 3256 3256 3256 3256 3256 3257 3257 3257 3257 3257 3258 3258 3258 3257 3257 3256 3255 3254 3254 3253 3253 3252 3251 3249 3248 3247 3246 3245 3245 3244 3242
3177 3179 3182 3184 3186 3189 3191 3194 3196 3198 3200 3202 3205 3207 3209 3211 3212 3214 3216 3217 3219 3221 3223 3224 3226 3228 3229 3230 3232 3233 3234 3235 3236 3237 3238 3240 3241 3242 3243 3244 3245 3246 3247 3248 3248 3249 3250 3251 3252 3252 3253 3254 3254 3254 3255 3255 3255 3255 3256 3256 3256 3256 3256 3256 3256 3257 3257 3257 3256 3256 3255 3254 3253 3253 3252 3251 3250 3249 3248 3247 3246 3244 3243 3242 3240
3174 3177 3179 3182 3184 3187 3189 3191 3193 3195 3197 3200 3202 3205 3207 3209 3210 3212 3214 3215 3217 3219 3220 3222 3223 3225 3227 3228 3230 3231 3232 3234 3235 3235 3237 3238 3240 3241 3242 3242 3244 3245 3246 3246 3247 3247 3248 3249 3250 3251 3251 3252 3253 3253 3254 3254 3254 3254 3254 3255 3255 3255 3255 3255 3255 3255 3255 3255 3255 3254 3253 3253 3252 3251 3250 3249 3248 3247 3247 3246 3245 3243 3242 3241 3239
3172 3175 3177 3180 3182 3184 3186 3188 3190 3193 3195 3197 3200 3202 3205 3206 3208 3210 3211 3213 3215 3216 3218 3219 3221 3223 3225 3226 3228 3229 3231 3232 3233 3234 3235 3236 3238 3239 3240 3240 3242 3243 3244 3245 3245 3246 3247 3248 3249 3249 3250 3250 3251 3252 3252 3253 3253 3253 3253 3253 3253 3254 3254 3254 3254 3254 3253 3253 3253 3253 3252 3251 3251 3250 3249 3248 3247 3246 3246 3244 3243 3241 3241 3240 3239
3170 3173 3175 3177 3179 3181 3184 3186 3188 3190 3193 3195 3198 3200 3202 3204 3205 3207 3209 3211 3212 3214 3215 3217 3218 3221 3223 3225 3226 3228 3229 3230 3231 3232 3233 3234 3236 3237 3238 3238 3240 3241 3242 3242 3243 3244 3245 3246 3247 3247 3248 3249 3249 3250 3251 3251 3251 3252 3252 3252 3252 3252 3252 3252 3252 3252 3251 3251 3251 3251 3251 3250 3249 3249 3248 3247 3245 3245 3244 3243 3242 3240 3239 3238 3237
3168 3170 3173 3175 3176 3179 3181 3183 3185 3188 3190 3193 3195 3197 3200 3202 3203 3205 3207 3208 3210 3211 3213 3215 3216 3219 3221 3223 3224 3225 3227 3228 3229 3230 3231 3232 3234 3235 3236 3236 3237 3238 3239 3240 3241 3242 3243 3244 3245 3246 3246 3247 3247 3248 3249 3249 3250 3250 3250 3250 3250 3250 3250 3250 3250 3250 3249 3249 3249 3249 3249 3249 3248 3247 3246 3245 3244 3243 3242 3241 3240 3239 3237 3236 3235
3166 3168 3170 3172 3174 3176 3179 3181 3183 3185 3188 3190 3192 3194 3197 3199 3201 3202 3204 3205 3207 3209 3211 3213 3214 3216 3219 3220 3221 3223 3224 3226 3227 3228 3230 3230 3232 3233 3234 3235 3235 3236 3237 3238 3239 3239 3240 3242 3243 3244 3244 3245 3245 3246 3247 3247 3248 3248 3249 3249 3249 3249 3249 3249 3248 3248 3248 3248 3248 3248 3247 3247 3246 3245 3245 3243 3242 3240 3239 3237 3236 3236 3235 3234 3233
3163 3165 3168 3170 3172 3174 3176 3178 3180 3183 3185 3187 3189 3192 3194 3196 3198 3199 3201 3203 3205 3206 3208 3210 3212 3214 3216 3218 3219 3220 3222 3223 3224 3226 3228 3229 3230 3231 3232 3233 3233 3234 3235 3236 3236 3237 3238 3240 3241 3241 3242 3242 3243 3244 3245 3245 3246 3247 3247 3247 3247 3247 3247 3247 3247 3247 3246 3246 3245 3245 3245 3244 3244 3243 3243 3241 3239 3237 3236 3234 3233 3232 3232 3231 3230
3160 3162 3165 3167 3170 3172 3174 3175 3178 3180 3182 3184 3187 3189 3191 3193 3195 3197 3198 3201 3203 3204 3206 3208 3209 3211 3213 3215 3216 3218 3219 3221 3222 3224 3226 3227 3228 3229 3230 3231 3232 3232 3232 3233 3234 3235 3236 3237 3239 3239 3240 3240 3241 3242 3243 3243 3244 3245 3245 3245 3246 3246 3246 3246 3245 3245 3245 3244 3244 3243 3243 3242 3242 3241 3240 3239 3237 3235 3233 3231 3230 3229 3228 3227 3226
3157 3159 3162 3165 3167 3169 3171 3173 3175 3177 3179 3181 3184 3186 3188 3190 3192 3194 3196 3198 3200 3202 3204 3205 3207 3209 3210 3212 3213 3215 3217 3218 3220 3222 3223 3225 3226 3227 3228 3229 3229 3230 3230 3231 3232 3233 3234 3235 3236 3237 3237 3238 3239 3240 3241 3242 3242 3243 3243 3243 3244 3244 3244 3244 3244 3244 3243 3242 3242 3242 3241 3241 3240 3239 3238 3237 3235 3233 3231 3229 3228 3227 3225 3224 3223
3154 3156 3159 3161 3164 3166 3168 3170 3172 3175 3176 3179 3181 3183 3185 3187 3189 3191 3193 3195 3197 3199 3201 3202 3204 3206 3207 3209 3210 3212 3214 3216 3217 3219 3221 3222 3224 3225 3225 3226 3227 3228 3228 3229 3230 3231 3232 3233 3234 3235 3235 3236 3237 3238 3239 3240 3241 3241 3241 3241 3241 3242 3242 3242 3242 3242 3242 3241 3241 3241 3240 3239 3238 3238 3236 3235 3233 3231 3229 3228 3226 3225 3224 3222 3220
3151 3153 3156 3158 3161 3163 3165 3167 3170 3172 3174 3176 3178 3180 3182 3184 3186 3188 3190 3192 3195 3197 3198 3200 3202 3203 3205 3206 3207 3209 3211 3212 3214 3217 3219 3220 3221 3222 3223 3224 3224 3225 3226 3226 3227 3228 3229 3231 3232 3233 3234 3235 3236 3236 3237 3238 3239 3239 3239 3239 3239 3240 3240 3240 3240 3240 3240 3240 3239 3239 3239 3238 3237 3236 3235 3233 3231 3230 3228 3226 3224 3223 3221 3220 3218
3148 3150 3153 3155 3157 3160 3162 3164 3167 3169 3172 3173 3175 3177 3179 3181 3183 3185 3187 3189 3191 3193 3195 3197 3198 3200 3202 3203 3205 3207 3208 3209 3211 3214 3216 3217 3218 3219 3220 3221 3222 3222 3223 3224 3225 3226 3227 3228 3229 3231 3232 3233 3234 3235 3236 3236 3237 3237 3237 3237 3237 3238 3238 3238 3238 3238 3238 3238 3238 3238 3238 3237 3236 3235 3234 3232 3230 3228 3226 3224 3222 3221 3219 3217 3216
3144 3147 3150 3152 3154 3156 3159 3161 3164 3167 3169 3171 3173 3175 3176 3178 3180 3182 3184 3186 3188 3190 3192 3194 3195 3198 3199 3201 3202 3204 3206 3207 3208 3211 3213 3215 3216 3216 3217 3218 3219 3220 3220 3221 3222 3223 3224 3226 3227 3229 3230 3231 3232 3233 3234 3234 3234 3235 3235 3235 3236 3236 3236 3236 3236 3236 3236 3236 3236 3236 3236 3235 3234 3233 3232 3231 3229 3227 3224 3222 3220 3218 3216 3214 3213
3141 3144 3147 3149 3151 3153 3156 3158 3161 3163 3166 3168 3170 3172 3173 3175 3177 3179 3181 3183 3185 3187 3189 3191 3192 3194 3196 3198 3199 3201 3203 3204 3205 3208 3210 3212 3212 3213 3213 3214 3216 3217 3218 3218 3220 3221 3222 3223 3225 3226 3228 3229 3230 3231 3232 3232 3232 3232 3232 3232 3233 3233 3233 3234 3234 3235 3235 3235 3234 3234 3233 3233 3232 3231 3230 3229 3227 3225 3223 3221 3219 3216 3213 3211 3210
3137 3141 3144 3146 3148 3150 3153 3155 3157 3160 3163 3165 3167 3169 3171 3173 3174 3176 3178 3180 3182 3184 3186 3188 3189 3191 3193 3195 3196 3198 3200 3201 3203 3205 3207 3209 3209 3209 3210 3211 3212 3214 3215 3216 3217 3218 3220 3221 3223 3224 3226 3227 3228 3229 3229 3230 3230 3229 3229 3229 3230 3230 3231 3231 3231 3232 3232 3232 3232 3232 3231 3231 3230 3229 3228 3227 3225 3223 3221 3220 3218 3214 3211 3209 3207
3134 3137 3140 3143 3145 3147 3149 3152 3154 3157 3159 3162 3164 3166 3168 3170 3172 3174 3176 3178 3179 3181 3183 3185 3187 3188 3190 3192 3194 3195 3197 3198 3200 3202 3204 3205 3206 3207 3207 3208 3209 3211 3212 3213 3214 3215 3217 3219 3220 3221 3223 3225 3226 3226 3227 3227 3227 3227 3227 3226 3226 3227 3227 3228 3229 3228 3228 3228 3229 3229 3228 3228 3228 3227 3226 3225 3223 3221 3219 3217 3215 3212 3209 3208 3205
3132 3134 3137 3139 3141 3144 3146 3149 3151 3153 3156 3159 3161 3163 3165 3167 3169 3171 3173 3175 3177 3179 3180 3182 3183 3185 3187 3189 3190 3192 3194 3195 3197 3199 3201 3202 3203 3204 3204 3205 3206 3207 3209 3210 3211 3213 3214 3216 3217 3218 3220 3222 3223 3224 3224 3224 3224 3224 3224 3224 3224 3224 3225 3225 3225 3225 3224 3224 3225 3225 3225 3224 3223 3223 3223 3222 3220 3218 3216 3214 3212 3209 3207 3206 3204
3129 3131 3134 3136 3138 3141 3143 3145 3148 3150 3153 3155 3158 3160 3162 3164 3166 3168 3170 3172 3174 3176 3177 3178 3180 3182 3184 3185 3187 3189 3191 3192 3193 3196 3198 3199 3200 3201 3201 3202 3203 3205 3207 3208 3208 3210 3211 3212 3214 3215 3217 3219 3220 3221 3221 3221 3222 3222 3222 3221 3221 3222 3222 3222 3222 3221 3221 3221 3221 3221 3221 3221 3220 3219 3219 3218 3216 3215 3213 3211 3209 3207 3205 3203 3202
3126 3127 3130 3133 3135 3138 3140 3142 3145 3147 3150 3152 3154 3156 3158 3160 3163 3165 3168 3169 3171 3172 3174 3175 3177 3179 3181 3182 3183 3185 3188 3189 3190 3192 3195 3196 3197 3198 3199 3199 3200 3202 3204 3205 3206 3206 3207 3209 3210 3211 3213 3215 3216 3217 3218 3218 3219 3219 3219 3219 3220 3220 3220 3219 3218 3218 3217 3217 3217 3218 3218 3218 3217 3215 3214 3213 3212 3211 3209 3208 3206 3205 3203 3201 3199
3122 3124 3127 3130 3132 3135 3137 3139 3142 3144 3146 3149 3151 3153 3155 3157 3160 3162 3164 3166 3167 3169 3171 3172 3174 3176 3178 3179 3180 3181 3184 3186 3187 3189 3191 3193 3194 3195 3196 3196 3198 3199 3201 3202 3203 3203 3204 3205 3206 3207 3209 3211 3213 3214 3214 3215 3215 3216 3216 3217 3217 3217 3217 3216 3215 3215 3214 3214 3214 3214 3214 3213 3212 3211 3210 3209 3208 3207 3205 3203 3202 3201 3200 3198 3195
3119 3121 3124 3126 3128 3131 3134 3137 3139 3141 3143 3145 3147 3149 3152 3154 3156 3159 3161 3162 3164 3165 3167 3169 3171 3173 3174 3176 3177 3178 3180 3182 3184 3185 3188 3190 3191 3192 3193 3193 3194 3196 3197 3198 3199 3200 3201 3202 3202 3204 3205 3207 3209 3211 3211 3211 3212 3213 3214 3214 3214 3214 3213 3213 3212 3212 3211 3210 3210 3210 3209 3209 3208 3207 3206 3205 3204 3203 3201 3200 3198 3196 3195 3194 3192
3116 3118 3121 3123 3126 3129 3132 3135 3137 3138 3139 3142 3144 3146 3148 3151 3153 3155 3157 3159 3160 3162 3164 3166 3168 3170 3171 3173 3174 3175 3177 3179 3180 3182 3184 3186 3188 3189 3190 3190 3191 3192 3194 3195 3196 3197 3198 3198 3199 3200 3201 3203 3206 3207 3208 3208 3209 3210 3210 3210 3210 3210 3209 3209 3208 3208 3207 3206 3206 3206 3205 3205 3204 3203 3202 3201 3200 3198 3196 3195 3194 3193 3192 3190 3188
3112 3115 3118 3120 3123 3127 3129 3132 3134 3135 3137 3138 3140 3143 3145 3147 3149 3151 3154 3156 3157 3159 3161 3163 3165 3166 3168 3170 3172 3173 3174 3176 3177 3179 3181 3183 3185 3186 3187 3188 3188 3189 3190 3192 3193 3193 3194 3195 3196 3197 3198 3200 3202 3204 3204 3205 3205 3206 3206 3206 3206 3206 3205 3204 3204 3204 3203 3203 3203 3202 3201 3200 3199 3199 3198 3197 3196 3194 3192 3191 3190 3189 3189 3188 3186
3108 3112 3114 3117 3121 3124 3126 3129 3131 3133 3134 3136 3138 3140 3142 3144 3146 3148 3151 3153 3154 3156 3158 3160 3162 3164 3166 3168 3170 3171 3172 3174 3176 3177 3179 3180 3182 3183 3184 3185 3185 3186 3187 3189 3189 3190 3190 3191 3193 3194 3195 3196 3198 3199 3200 3200 3201 3202 3202 3202 3202 3201 3200 3199 3199 3199 3198 3198 3198 3197 3197 3196 3195 3195 3194 3193 3192 3190 3189 3188 3187 3186 3186 3185 3184
3105 3108 3112 3115 3118 3120 3123 3126 3128 3130 3132 3134 3136 3138 3140 3142 3144 3146 3148 3150 3152 3154 3156 3158 3160 3162 3164 3166 3168 3169 3170 3172 3173 3174 3176 3177 3179 3180 3181 3182 3183 3183 3184 3185 3186 3187 3188 3188 3189 3191 3191 3192 3193 3195 3195 3196 3197 3197 3198 3198 3197 3196 3195 3195 3195 3194 3194 3194 3193 3193 3193 3192 3191 3191 3190 3188 3188 3187 3186 3185 3184 3183 3182 3181 3180
3102 3105 3109 3111 3114 3118 3121 3123 3125 3127 3129 3131 3133 3135 3137 3139 3141 3143 3146 3148 3150 3151 3154 3156 3158 3160 3161 3163 3165 3166 3167 3169 3171 3172 3173 3174 3176 3177 3178 3179 3180 3180 3181 3182 3184 3185 3185 3186 3187 3187 3188 3189 3190 3191 3191 3191 3192 3193 3193 3193 3192 3191 3190 3190 3191 3190 3189 3189 3189 3189 3188 3188 3187 3186 3185 3184 3183 3183 3182 3181 3180 3179 3178 3177 3176
3099 3102 3105 3108 3111 3115 3118 3120 3122 3124 3125 3127 3130 3132 3134 3136 3138 3140 3142 3145 3147 3149 3151 3152 3154 3156 3158 3159 3161 3162 3164 3165 3167 3168 3169 3171 3172 3173 3175 3175 3176 3177 3179 3180 3181 3181 3181 3182 3184 3184 3185 3185 3186 3186 3186 3186 3187 3188 3188 3188 3188 3187 3186 3186 3186 3184 3184 3185 3184 3183 3183 3184 3183 3182 3181 3180 3180 3179 3178 3178 3177 3175 3174 3173 3171
3095 3099 3102 3105 3108 3111 3114 3116 3119 3120 3122 3124 3127 3129 3131 3134 3135 3137 3139 3141 3143 3145 3147 3149 3150 3152 3154 3155 3157 3159 3160 3161 3163 3164 3165 3167 3169 3170 3171 3172 3172 3174 3176 3177 3177 3177 3178 3179 3180 3180 3180 3180 3181 3181 3181 3181 3182 3183 3183 3183 3183 3182 3181 3181 3181 3179 3179 3180 3179 3178 3178 3179 3178 3177 3176 3176 3175 3174 3174 3174 3173 3172 3171 3170 3168
3092 3095 3099 3102 3104 3108 3110 3112 3115 3117 3119 3122 3125 3126 3128 3131 3132 3134 3136 3138 3140 3142 3143 3145 3147 3148 3150 3151 3153 3155 3156 3158 3159 3160 3162 3163 3165 3166 3168 3169 3170 3171 3172 3173 3173 3173 3174 3174 3175 3175 3175 3175 3176 3176 3176 3176 3178 3179 3179 3178 3178 3177 3176 3176 3175 3173 3173 3174 3173 3173 3174 3174 3172 3172 3172 3171 3171 3171 3170 3170 3170 3169 3168 3166 3165
3089 3092 3095 3097 3101 3104 3107 3109 3112 3115 3117 3120 3122 3123 3125 3127 3129 3131 3133 3135 3137 3138 3140 3142 3143 3144 3146 3148 3149 3151 3152 3154 3156 3157 3158 3160 3161 3162 3164 3166 3167 3168 3168 3168 3168 3169 3169 3169 3170 3170 3170 3171 3171 3172 3173 3172 3173 3174 3174 3173 3173 3172 3171 3170 3170 3169 3168 3168 3168 3168 3169 3170 3170 3170 3170 3170 3170 3169 3168 3168 3167 3166 3165 3163 3161
3085 3089 3092 3094 3097 3101 3104 3106 3110 3112 3114 3116 3118 3120 3121 3124 3125 3127 3129 3131 3133 3135 3137 3138 3139 3141 3142 3144 3145 3147 3149 3150 3152 3153 3155 3157 3158 3159 3159 3161 3162 3163 3163 3163 3164 3164 3164 3164 3165 3165 3166 3166 3167 3168 3169 3168 3168 3168 3168 3168 3168 3167 3167 3166 3167 3166 3166 3166 3165 3164 3164 3166 3167 3168 3168 3168 3168 3167 3166 3165 3164 3163 3161 3160 3158
3082 3085 3087 3090 3094 3098 3101 3104 3106 3109 3110 3113 3115 3117 3118 3120 3122 3124 3126 3128 3129 3131 3133 3134 3135 3137 3138 3140 3142 3143 3145 3146 3148 3149 3151 3153 3154 3155 3155 3156 3157 3158 3158 3159 3159 3159 3160 3160 3160 3162 3162 3163 3163 3164 3164 3164 3164 3164 3164 3163 3163 3163 3163 3163 3163 3163 3163 3163 3163 3162 3162 3163 3163 3164 3164 3164 3164 3163 3162 3161 3160 3159 3158 3156 3155
3079 3081 3084 3088 3092 3096 3098 3101 3103 3105 3107 3109 3111 3113 3115 3116 3119 3121 3122 3124 3125 3127 3129 3130 3132 3133 3135 3136 3138 3140 3141 3143 3144 3146 3148 3149 3150 3151 3151 3152 3153 3153 3154 3155 3155 3155 3156 3156 3157 3158 3158 3158 3159 3161 3161 3160 3160 3160 3159 3159 3159 3159 3158 3158 3157 3158 3159 3160 3160 3160 3160 3160 3160 3160 3159 3159 3159 3158 3157 3156 3155 3154 3153 3152 3150
3074 3077 3082 3086 3090 3092 3095 3097 3099 3101 3103 3105 3107 3109 3111 3113 3115 3117 3118 3119 3121 3123 3125 3127 3128 3130 3131 3132 3134 3136 3137 3139 3141 3142 3144 3145 3146 3146 3147 3148 3149 3149 3150 3151 3152 3152 3152 3153 3154 3154 3154 3155 3156 3156 3156 3156 3156 3154 3154 3155 3155 3154 3153 3153 3153 3153 3155 3155 3155 3156 3156 3155 3155 3156 3155 3154 3154 3154 3153 3152 3151 3149 3148 3147 3145
3069 3073 3077 3082 3085 3088 3090 3093 3095 3097 3099 3101 3103 3105 3108 3110 3111 3112 3114 3116 3118 3120 3122 3123 3125 3126 3127 3129 3130 3132 3134 3135 3137 3139 3140 3140 3141 3142 3143 3144 3145 3146 3147 3147 3148 3148 3149 3149 3150 3150 3151 3151 3151 3152 3152 3152 3150 3149 3151 3152 3152 3150 3150 3151 3151 3151 3152 3152 3152 3152 3152 3151 3151 3151 3150 3150 3150 3149 3148 3147 3146 3144 3143 3142 3140
3067 3070 3074 3077 3080 3083 3085 3088 3090 3093 3095 3097 3099 3102 3105 3107 3108 3109 3112 3114 3116 3117 3118 3119 3121 3122 3123 3125 3126 3128 3130 3131 3132 3133 3134 3135 3136 3138 3139 3141 3142 3142 3142 3143 3143 3144 3145 3145 3146 3146 3147 3147 3147 3148 3149 3149 3146 3147 3150 3151 3150 3148 3149 3149 3149 3150 3150 3149 3148 3148 3148 3147 3147 3147 3146 3145 3145 3144 3143 3142 3141 3139 3137 3136 3134
3064 3068 3071 3074 3076 3078 3080 3083 3086 3088 3090 3093 3095 3098 3101 3103 3105 3107 3109 3111 3112 3113 3114 3115 3117 3118 3119 3121 3122 3124 3125 3126 3127 3128 3129 3130 3132 3134 3135 3136 3137 3137 3138 3138 3139 3139 3140 3141 3141 3142 3143 3144 3144 3144 3145 3144 3143 3144 3147 3148 3147 3146 3146 3146 3146 3147 3146 3145 3144 3144 3144 3144 3143 3143 3142 3141 3140 3139 3138 3137 3135 3134 3133 3131 3129
3061 3065 3068 3071 3073 3075 3077 3079 3081 3084 3087 3090 3092 3095 3098 3100 3102 3104 3105 3106 3107 3108 3109 3110 3112 3114 3115 3117 3118 3119 3120 3121 3123 3124 3126 3127 3128 3129 3130 3131 3132 3132 3133 3133 3134 3135 3136 3137 3137 3138 3139 3140 3140 3140 3140 3140 3139 3140 3141 3142 3142 3142 3142 3142 3142 3142 3142 3142 3141 3140 3140 3139 3139 3138 3138 3136 3135 3134 3134 3132 3130 3129 3128 3126 3125
3059 3061 3063 3066 3070 3073 3075 3077 3078 3081 3084 3087 3090 3092 3094 3096 3098 3099 3100 3101 3102 3102 3104 3106 3108 3110 3111 3112 3113 3114 3116 3117 3119 3121 3122 3123 3124 3125 3125 3126 3126 3127 3128 3129 3130 3131 3132 3133 3133 3134 3135 3135 3135 3135 3136 3136 3136 3136 3136 3136 3136 3136 3137 3137 3138 3138 3138 3138 3137 3136 3136 3135 3134 3134 3133 3132 3130 3130 3129 3128 3126 3125 3123 3122 3121
3056 3058 3060 3062 3065 3068 3072 3074 3076 3079 3081 3083 3086 3088 3090 3092 3093 3094 3094 3095 3096 3098 3100 3102 3104 3105 3107 3108 3109 3110 3112 3113 3115 3116 3118 3119 3120 3120 3121 3121 3122 3123 3124 3125 3126 3127 3128 3129 3130 3130 3131 3131 3131 3132 3132 3132 3132 3132 3132 3132 3132 3132 3133 3133 3133 3134 3134 3134 3132 3132 3131 3130 3129 3129 3128 3127 3127 3126 3125 3123 3122 3121 3119 3118 3117
3052 3055 3058 3060 3061 3063 3066 3069 3072 3074 3076 3078 3081 3083 3085 3086 3087 3089 3090 3091 3093 3095 3097 3098 3100 3101 3102 3103 3104 3106 3107 3109 3110 3112 3113 3114 3115 3116 3117 3117 3118 3119 3120 3121 3122 3123 3124 3125 3126 3126 3127 3127 3128 3128 3128 3128 3129 3129 3129 3129 3129 3129 3129 3129 3129 3130 3130 3129 3128 3127 3127 3126 3125 3125 3124 3123 3123 3122 3120 3119 3118 3117 3116 3115 3113
3049 3051 3054 3057 3058 3060 3064 3067 3069 3070 3072 3074 3076 3078 3080 3081 3082 3083 3085 3087 3090 3092 3093 3094 3095 3096 3097 3098 3100 3101 3103 3104 3106 3107 3109 3110 3111 3111 3112 3113 3114 3115 3116 3118 3119 3119 3120 3121 3122 3122 3123 3123 3123 3124 3124 3124 3125 3125 3125 3125 3126 3126 3125 3125 3125 3125 3125 3125 3124 3124 3123 3122 3122 3121 3120 3119 3118 3117 3116 3115 3114 3113 3112 3111 3110
3046 3047 3050 3052 3054 3057 3062 3065 3067 3069 3070 3071 3072 3074 3076 3077 3079 3081 3083 3085 3086 3088 3089 3090 3091 3092 3093 3094 3096 3097 3099 3100 3102 3103 3104 3105 3106 3107 3108 3110 3111 3112 3113 3114 3115 3115 3116 3117 3118 3118 3119 3119 3120 3120 3120 3120 3121 3121 3121 3122 3122 3122 3122 3121 3121 3121 3121 3121 3120 3120 3119 3118 3118 3117 3116 3115 3114 3113 3112 3111 3110 3109 3108 3106 3105
3045 3045 3046 3049 3052 3055 3058 3061 3064 3067 3069 3069 3070 3072 3073 3074 3078 3082 3084 3084 3085 3085 3086 3087 3088 3089 3089 3091 3092 3093 3094 3096 3097 3098 3099 3101 3102 3104 3105 3106 3107 3108 3109 3110 3111 3111 3112 3113 3114 3115 3115 3115 3116 3116 3116 3117 3117 3118 3118 3118 3118 3118 3118 3118 3117 3117 3117 3116 3116 3116 3115 3114 3114 3113 3112 3111 3110 3109 3107 3107 3106 3105 3104 3102 3101
3047 3046 3046 3048 3050 3053 3055 3058 3061 3064 3066 3066 3068 3070 3071 3072 3076 3081 3083 3084 3084 3084 3083 3082 3083 3084 3085 3086 3088 3088 3089 3091 3092 3093 3095 3096 3098 3100 3101 3102 3103 3104 3105 3106 3107 3108 3109 3109 3110 3111 3112 3112 3112 3113 3113 3114 3114 3114 3114 3114 3114 3114 3114 3114 3114 3113 3113 3112 3112 3111 3111 3110 3109 3108 3107 3107 3106 3105 3104 3103 3102 3101 3100 3099 3098
3046 3046 3046 3047 3049 3052 3054 3056 3058 3061 3063 3064 3064 3066 3068 3070 3073 3077 3079 3080 3081 3081 3080 3079 3079 3080 3080 3081 3082 3084 3085 3086 3088 3089 3091 3092 3094 3096 3097 3098 3099 3100 3101 3102 3103 3104 3105 3106 3107 3107 3108 3108 3109 3109 3110 3110 3110 3110 3110 3111 3111 3110 3110 3110 3110 3109 3109 3108 3107 3107 3106 3105 3104 3103 3103 3102 3101 3100 3099 3099 3098 3097 3095 3095 3094
3045 3045 3046 3047 3048 3051 3055 3057 3058 3059 3061 3061 3061 3062 3064 3067 3070 3073 3075 3077 3078 3078 3079 3079 3080 3080 3080 3080 3080 3081 3082 3083 3085 3087 3088 3089 3090 3092 3093 3094 3096 3097 3098 3099 3100 3101 3101 3102 3103 3103 3104 3104 3105 3105 3106 3106 3106 3106 3106 3106 3106 3106 3106 3105 3105 3104 3104 3103 3103 3102 3101 3100 3099 3098 3097 3097 3096 3095 3094 3094 3093 3092 3091 3090 3089
3044 3045 3046 3047 3048 3051 3054 3056 3057 3058 3059 3059 3059 3059 3062 3064 3067 3070 3072 3073 3075 3076 3077 3078 3079 3080 3081 3081 3081 3081 3081 3082 3084 3085 3086 3087 3087 3089 3090 3091 3092 3093 3094 3095 3096 3097 3098 3098 3099 3100 3100 3100 3101 3101 3101 3102 3102 3102 3102 3102 3101 3101 3101 3101 3100 3100 3099 3098 3097 3097 3096 3095 3094 3093 3092 3092 3091 3090 3090 3089 3088 3088 3087 3086 3085
3043 3044 3046 3047 3048 3050 3052 3053 3055 3056 3056 3057 3058 3059 3061 3063 3066 3068 3069 3070 3071 3072 3073 3075 3076 3078 3078 3079 3080 3081 3081 3082 3082 3083 3083 3084 3085 3086 3087 3088 3089 3090 3091 3092 3093 3094 3094 3095 3096 3096 3096 3097 3097 3097 3098 3098 3098 3098 3098 3097 3097 3097 3096 3096 3095 3094 3094 3093 3092 3092 3091 3090 3089 3088 3088 3087 3086 3086 3085 3084 3083 3082 3082 3081 3080